DW4589 Weather Reports


Display with metric or nautical units.
time (UTC)temp
F
wind
direction
speed
MPH
gust
MPH
rain 1hr
in
rain 24hr
in
rain mn
in
humidity
%
barometer
mb
20260903001508 86 269 0.0 2.0 0.00 0.00 0.00 65 1016.2
20260903001004 87 269 0.0 1.0 0.00 0.00 0.00 65 1016.2
20260903000505 87 269 0.0 2.0 0.00 0.00 0.00 64 1016.1
20260903000011 87 260 0.0 2.0 0.00 0.00 0.00 62 1016.1
20260902235502 88 240 0.0 2.0 0.00 0.00 0.00 63 1016.1
20260902235004 89 240 0.0 2.0 0.00 0.00 0.00 63 1016.1
20260902234511 89 240 0.0 2.0 0.00 0.00 0.00 62 1016.1
20260902234004 90 240 0.0 2.0 0.00 0.00 0.00 61 1016.1
20260902233503 90 248 0.0 2.0 0.00 0.00 0.00 62 1016.1
20260902233011 90 266 0.0 2.0 0.00 0.00 0.00 59 1016.1
20260902232503 90 238 1.0 7.0 0.00 0.00 0.00 58 1016.1
20260902232004 91 239 1.0 7.0 0.00 0.00 0.00 58 1016.1
20260902231509 91 239 1.0 4.0 0.00 0.00 0.00 58 1016.1
20260902231006 91 240 1.0 8.0 0.00 0.00 0.00 58 1016.2
20260902230506 91 246 2.0 8.0 0.00 0.00 0.00 57 1016.1
20260902230015 92 360 2.0 8.0 0.00 0.00 0.00 57 1016.2
20260902225505 92 246 1.0 5.0 0.00 0.00 0.00 57 1016.2
20260902225008 92 360 2.0 8.0 0.00 0.00 0.00 55 1016.2
20260902224516 92 213 2.0 8.0 0.00 0.00 0.00 56 1016.2
20260902224004 92 306 2.0 6.0 0.00 0.00 0.00 57 1016.2
20260902223506 92 215 3.0 6.0 0.00 0.00 0.00 56 1016.2
20260902223003 92 360 2.0 6.0 0.00 0.00 0.00 57 1016.2
20260902222504 92 360 2.0 6.0 0.00 0.00 0.00 57 1016.2
20260902222003 92 209 2.0 7.0 0.00 0.00 0.00 58 1016.3
20260902221516 92 360 2.0 7.0 0.00 0.00 0.00 56 1016.2
20260902221004 92 251 1.0 4.0 0.00 0.00 0.00 57 1016.3
20260902220504 93 146 1.0 3.0 0.00 0.00 0.00 56 1016.3
20260902220016 92 248 2.0 4.0 0.00 0.00 0.00 57 1016.4
20260902215507 92 231 2.0 9.0 0.00 0.00 0.00 56 1016.4
20260902215007 93 261 4.0 9.0 0.00 0.00 0.00 55 1016.4
20260902214517 94 269 3.0 9.0 0.00 0.00 0.00 54 1016.4
20260902214007 94 213 3.0 9.0 0.00 0.00 0.00 53 1016.4
20260902213506 94 269 3.0 12.0 0.00 0.00 0.00 54 1016.4
20260902213016 93 360 3.0 12.0 0.00 0.00 0.00 55 1016.4
20260902212511 94 360 6.0 12.0 0.00 0.00 0.00 1016.5
20260902212013 94 360 2.0 8.0 0.00 0.00 0.00 55 1016.5
20260902211512 94 292 3.0 10.0 0.00 0.00 0.00 55 1016.5
20260902211005 94 296 5.0 10.0 0.00 0.00 0.00 52 1016.6
20260902210509 94 288 3.0 7.0 0.00 0.00 0.00 53 1016.5
20260902210016 94 360 2.0 7.0 0.00 0.00 0.00 53 1016.5
20260902205505 93 281 2.0 5.0 0.00 0.00 0.00 54 1016.6
20260902205009 92 309 2.0 5.0 0.00 0.00 0.00 55 1016.7
20260902204536 92 306 3.0 4.0 0.00 0.00 0.00 1016.7
20260902204011 93 360 1.0 5.0 0.00 0.00 0.00 1016.6
20260902203512 93 273 1.0 9.0 0.00 0.00 0.00 52 1016.7
20260902203020 93 360 4.0 9.0 0.00 0.00 0.00 52 1016.7
20260902202510 94 259 4.0 9.0 0.00 0.00 0.00 51 1016.7
20260902202012 94 259 4.0 9.0 0.00 0.00 0.00 52 1016.6
20260902201524 94 282 4.0 10.0 0.00 0.00 0.00 49 1016.8
20260902201009 94 360 4.0 10.0 0.00 0.00 0.00 48 1016.9
20260902200503 95 360 6.0 9.0 0.00 0.00 0.00 48 1016.8
20260902200012 94 207 2.0 6.0 0.00 0.00 0.00 50 1016.9
20260902195507 94 360 2.0 7.0 0.00 0.00 0.00 50 1017.0
20260902195008 94 360 4.0 7.0 0.00 0.00 0.00 48 1017.1
20260902194515 94 231 3.0 8.0 0.00 0.00 0.00 51 1017.1
20260902194008 94 298 3.0 10.0 0.00 0.00 0.00 52 1017.2
20260902193510 94 184 5.0 10.0 0.00 0.00 0.00 1017.3
20260902193024 93 360 4.0 12.0 0.00 0.00 0.00 50 1017.3
20260902192512 93 360 5.0 12.0 0.00 0.00 0.00 50 1017.4
20260902192010 93 290 4.0 10.0 0.00 0.00 0.00 51 1017.5
20260902191524 93 297 5.0 10.0 0.00 0.00 0.00 51 1017.5
20260902191011 93 233 3.0 9.0 0.00 0.00 0.00 53 1017.5
20260902190511 93 248 3.0 8.0 0.00 0.00 0.00 55 1017.6
20260902190023 93 360 2.0 8.0 0.00 0.00 0.00 56 1017.6
20260902185507 93 360 3.0 8.0 0.00 0.00 0.00 54 1017.7
20260902185008 93 304 3.0 8.0 0.00 0.00 0.00 56 1017.6
20260902184521 92 284 4.0 8.0 0.00 0.00 0.00 55 1017.6
20260902184008 92 203 5.0 8.0 0.00 0.00 0.00 56 1017.7
20260902183508 92 360 3.0 9.0 0.00 0.00 0.00 55 1017.7
20260902183046 92 360 5.0 10.0 0.00 0.00 0.00 54 1017.8
20260902182512 93 305 4.0 10.0 0.00 0.00 0.00 52 1017.8
20260902182012 92 286 3.0 10.0 0.00 0.00 0.00 51 1017.9
20260902181528 92 250 3.0 12.0 0.00 0.00 0.00 53 1017.9
20260902181013 92 360 6.0 12.0 0.00 0.00 0.00 53 1018.0
20260902180514 92 360 3.0 7.0 0.00 0.00 0.00 54 1018.0
20260902180028 91 323 3.0 10.0 0.00 0.00 0.00 51 1018.1
20260902175514 92 273 3.0 10.0 0.00 0.00 0.00 56 1018.1
20260902175011 92 259 3.0 8.0 0.00 0.00 0.00 53 1018.1
20260902174528 92 271 3.0 8.0 0.00 0.00 0.00 53 1018.2
20260902174007 91 360 3.0 5.0 0.00 0.00 0.00 56 1018.2
20260902173508 90 242 2.0 8.0 0.00 0.00 0.00 58 1018.3
20260902173026 90 236 3.0 8.0 0.00 0.00 0.00 54 1018.2
20260902172511 91 225 4.0 7.0 0.00 0.00 0.00 55 1018.3
20260902172012 91 249 2.0 7.0 0.00 0.00 0.00 56 1018.3
20260902171528 91 360 2.0 8.0 0.00 0.00 0.00 56 1018.4
20260902171002 91 265 3.0 8.0 0.00 0.00 0.00 55 1018.3
20260902170502 90 290 3.0 8.0 0.00 0.00 0.00 57 1018.4
20260902170007 90 268 3.0 9.0 0.00 0.00 0.00 54 1018.4
20260902165502 91 360 3.0 9.0 0.00 0.00 0.00 53 1018.5
20260902165006 91 291 5.0 9.0 0.00 0.00 0.00 53 1018.5
20260902164512 91 298 5.0 9.0 0.00 0.00 0.00 57 1018.5
20260902164004 90 280 4.0 9.0 0.00 0.00 0.00 57 1018.6
20260902163508 90 252 4.0 9.0 0.00 0.00 0.00 57 1018.7
20260902163016 90 241 3.0 8.0 0.00 0.00 0.00 58 1018.6
20260902162507 90 279 3.0 10.0 0.00 0.00 0.00 57 1018.6
20260902162009 90 284 3.0 10.0 0.00 0.00 0.00 59 1018.6
20260902161503 90 229 4.0 7.0 0.00 0.00 0.00 58 1018.6
20260902161004 89 220 3.0 6.0 0.00 0.00 0.00 61 1018.6
20260902160504 89 299 4.0 6.0 0.00 0.00 0.00 61 1018.7
20260902160007 89 245 2.0 6.0 0.00 0.00 0.00 64 1018.7
20260902155505 89 228 1.0 6.0 0.00 0.00 0.00 60 1018.8
20260902155003 89 270 3.0 7.0 0.00 0.00 0.00 61 1018.8
20260902154511 88 246 2.0 7.0 0.00 0.00 0.00 64 1018.7
20260902154006 88 295 3.0 7.0 0.00 0.00 0.00 65 1018.9
20260902153503 88 302 3.0 8.0 0.00 0.00 0.00 63 1018.9
20260902153016 88 265 2.0 8.0 0.00 0.00 0.00 64 1018.9
20260902152507 88 256 2.0 6.0 0.00 0.00 0.00 62 1018.9
20260902152007 88 229 3.0 6.0 0.00 0.00 0.00 63 1018.9
20260902151523 87 265 1.0 4.0 0.00 0.00 0.00 67 1019.0
20260902151011 87 273 2.0 6.0 0.00 0.00 0.00 67 1019.0
20260902150504 87 295 3.0 6.0 0.00 0.00 0.00 66 1019.1
20260902150006 87 222 2.0 4.0 0.00 0.00 0.00 66 1019.1
20260902145504 86 294 2.0 5.0 0.00 0.00 0.00 67 1019.1
20260902145004 86 292 3.0 5.0 0.00 0.00 0.00 67 1019.0
20260902144507 86 300 2.0 7.0 0.00 0.00 0.00 67 1019.1
20260902144005 85 298 3.0 7.0 0.00 0.00 0.00 66 1019.1
20260902143504 85 308 4.0 7.0 0.00 0.00 0.00 67 1019.0
20260902143018 85 271 2.0 5.0 0.00 0.00 0.00 70 1019.1
20260902142506 85 314 2.0 4.0 0.00 0.00 0.00 68 1019.1
20260902142009 84 267 1.0 5.0 0.00 0.00 0.00 72 1019.0
20260902141519 84 288 2.0 5.0 0.00 0.00 0.00 71 1019.1
20260902141012 84 250 1.0 4.0 0.00 0.00 0.00 70 1019.1
20260902140510 83 240 1.0 3.0 0.00 0.00 0.00 73 1018.9
20260902140026 83 263 0.0 3.0 0.00 0.00 0.00 72 1018.9
20260902135517 83 252 1.0 3.0 0.00 0.00 0.00 73 1019.0
20260902135005 83 304 1.0 2.0 0.00 0.00 0.00 73 1019.1
20260902134508 82 226 1.0 2.0 0.00 0.00 0.00 73 1019.1
20260902134002 82 235 0.0 2.0 0.00 0.00 0.00 75 1019.0
20260902133506 81 235 0.0 2.0 0.00 0.00 0.00 74 1018.9
20260902133013 81 209 1.0 2.0 0.00 0.00 0.00 75 1019.0
20260902132509 80 240 0.0 2.0 0.00 0.00 0.00 76 1018.9
20260902132007 80 243 0.0 2.0 0.00 0.00 0.00 77 1018.9
20260902131518 80 239 0.0 2.0 0.00 0.00 0.00 77 1018.9
20260902131009 79 210 0.0 0.0 0.00 0.00 0.00 77 1018.9
20260902130510 79 242 0.0 0.0 0.00 0.00 0.00 77 1018.9
20260902130024 79 242 0.0 0.0 0.00 0.00 0.00 77 1019.0
20260902125514 79 242 0.0 2.0 0.00 0.00 0.00 78 1018.9
20260902125014 78 242 0.0 0.0 0.00 0.00 0.00 79 1018.9
20260902124529 78 194 0.0 0.0 0.00 0.00 0.00 81 1018.9
20260902124004 77 163 0.0 0.0 0.00 0.00 0.00 83 1018.8
20260902123506 76 163 0.0 0.0 0.00 0.00 0.00 85 1018.8
20260902123011 75 163 0.0 0.0 0.00 0.00 0.00 86 1018.7
20260902122506 75 163 0.0 0.0 0.00 0.00 0.00 88 1018.7
20260902122004 74 163 0.0 2.0 0.00 0.00 0.00 89 1018.7
20260902121514 73 163 0.0 2.0 0.00 0.00 0.00 90 1018.6
20260902121008 73 192 0.0 2.0 0.00 0.00 0.00 91 1018.7
20260902120508 72 113 0.0 0.0 0.00 0.00 0.00 92 1018.7
20260902120025 71 113 0.0 1.0 0.00 0.00 0.00 92 1018.6
20260902115512 71 113 0.0 2.0 0.00 0.00 0.00 92 1018.5
20260902115015 71 113 0.0 2.0 0.00 0.00 0.00 92 1018.5
20260902114530 70 113 0.0 2.0 0.00 0.00 0.00 92 1018.4
20260902114016 70 113 0.0 2.0 0.00 0.00 0.00 92 1018.4
20260902113513 70 113 0.0 2.0 0.00 0.00 0.00 92 1018.3
20260902113008 70 113 0.0 2.0 0.00 0.00 0.00 92 1018.3
20260902112506 70 113 0.0 2.0 0.00 0.00 0.00 92 1018.2
20260902112007 69 113 0.0 1.0 0.00 0.00 0.00 92 1018.2
20260902111513 69 113 0.0 1.0 0.00 0.00 0.00 91 1018.1
20260902111008 69 113 0.0 2.0 0.00 0.00 0.00 91 1018.1
20260902110511 69 111 0.0 2.0 0.00 0.00 0.00 91 1018.1
20260902110034 69 69 0.0 2.0 0.00 0.00 0.00 91 1018.1
20260902105513 69 69 0.0 2.0 0.00 0.00 0.00 91 1018.2
20260902105010 69 225 0.0 2.0 0.00 0.00 0.00 91 1018.1
20260902104548 69 225 0.0 1.0 0.00 0.00 0.00 91 1018.1
20260902104017 69 103 0.0 0.0 0.00 0.00 0.00 91 1018.2
20260902103516 69 103 0.0 0.0 0.00 0.00 0.00 91 1018.2
20260902103046 69 103 0.0 0.0 0.00 0.00 0.00 91 1018.2
20260902102518 69 103 0.0 0.0 0.00 0.00 0.00 91 1018.2
20260902102015 69 103 0.0 0.0 0.00 0.00 0.00 91 1018.1
20260902101513 69 103 0.0 0.0 0.00 0.00 0.00 91 1018.2
20260902101006 69 103 0.0 0.0 0.00 0.00 0.00 91 1018.2
20260902100507 69 103 0.0 0.0 0.00 0.00 0.00 91 1018.1
20260902100020 69 103 0.0 0.0 0.00 0.00 0.00 91 1018.1
20260902095510 69 103 0.0 0.0 0.00 0.00 0.00 91 1018.2
20260902095010 70 103 0.0 0.0 0.00 0.00 0.00 91 1018.1
20260902094528 70 103 0.0 0.0 0.00 0.00 0.00 91 1018.1
20260902094014 69 103 0.0 2.0 0.00 0.00 0.00 91 1018.2
20260902093515 69 103 0.0 2.0 0.00 0.00 0.00 90 1018.0
20260902093031 70 103 0.0 2.0 0.00 0.00 0.00 90 1018.0
20260902092517 70 103 0.0 2.0 0.00 0.00 0.00 90 1018.1
20260902092017 70 103 0.0 0.0 0.00 0.00 0.00 91 1018.1
20260902091529 70 103 0.0 0.0 0.00 0.00 0.00 90 1018.1
20260902091015 70 103 0.0 0.0 0.00 0.00 0.00 90 1018.0
20260902090509 70 103 0.0 0.0 0.00 0.00 0.00 90 1017.9
20260902090027 70 103 0.0 0.0 0.00 0.00 0.00 90 1017.9
20260902085507 70 103 0.0 0.0 0.00 0.00 0.00 90 1017.8
20260902085010 70 103 0.0 0.0 0.00 0.00 0.00 90 1017.8
20260902084535 70 103 0.0 0.0 0.00 0.00 0.00 90 1017.7
20260902084014 70 103 0.0 0.0 0.00 0.00 0.00 90 1017.6
20260902083518 70 103 0.0 0.0 0.00 0.00 0.00 90 1017.5
20260902083028 70 103 0.0 2.0 0.00 0.00 0.00 90 1017.5
20260902082516 70 103 0.0 2.0 0.00 0.00 0.00 90 1017.4
20260902082018 70 103 0.0 2.0 0.00 0.00 0.00 90 1017.4
20260902081529 70 103 0.0 2.0 0.00 0.00 0.00 90 1017.4
20260902081007 70 103 0.0 2.0 0.00 0.00 0.00 90 1017.4
20260902080503 70 103 0.0 2.0 0.00 0.00 0.00 89 1017.3
20260902080022 70 103 0.0 2.0 0.00 0.00 0.00 89 1017.3
20260902075509 70 103 1.0 2.0 0.00 0.00 0.00 89 1017.3
20260902075013 71 103 0.0 2.0 0.00 0.00 0.00 89 1017.4
20260902074524 71 103 0.0 2.0 0.00 0.00 0.00 89 1017.3
20260902074003 71 103 0.0 2.0 0.00 0.00 0.00 89 1017.3
20260902073502 71 103 0.0 2.0 0.00 0.00 0.00 89 1017.3
20260902073004 71 103 0.0 2.0 0.00 0.00 0.00 89 1017.3
20260902072503 71 103 0.0 2.0 0.00 0.00 0.00 89 1017.3
20260902072003 71 103 0.0 2.0 0.00 0.00 0.00 89 1017.3
20260902071507 71 103 0.0 2.0 0.00 0.00 0.00 89 1017.3
20260902071002 71 103 0.0 2.0 0.00 0.00 0.00 88 1017.4
20260902070507 71 103 0.0 2.0 0.00 0.00 0.00 88 1017.4
20260902070022 71 103 0.0 2.0 0.00 0.00 0.00 88 1017.4
20260902065506 72 103 0.0 2.0 0.00 0.00 0.00 88 1017.3
20260902065008 72 103 0.0 2.0 0.00 0.00 0.00 88 1017.4
20260902064519 72 103 0.0 2.0 0.00 0.00 0.00 88 1017.4
20260902064011 72 103 0.0 2.0 0.00 0.00 0.00 88 1017.3
20260902063510 72 103 0.0 2.0 0.00 0.00 0.00 87 1017.4
20260902063044 72 103 0.0 0.0 0.00 0.00 0.00 87 1017.4
20260902062504 72 103 0.0 2.0 0.00 0.00 0.00 87 1017.5
20260902062003 72 103 0.0 2.0 0.00 0.00 0.00 87 1017.4
20260902061507 72 103 0.0 2.0 0.00 0.00 0.00 87 1017.4
20260902061003 73 103 0.0 2.0 0.00 0.00 0.00 87 1017.3
20260902060505 73 103 0.0 2.0 0.00 0.00 0.00 86 1017.3
20260902060010 73 103 0.0 2.0 0.00 0.00 0.00 87 1017.3
20260902055506 73 103 0.0 2.0 0.00 0.00 0.00 87 1017.4
20260902055006 73 103 0.0 2.0 0.00 0.00 0.00 87 1017.4
20260902054516 73 103 0.0 2.0 0.00 0.00 0.00 86 1017.4
20260902054008 73 103 0.0 0.0 0.00 0.00 0.00 86 1017.5
20260902053510 73 103 0.0 0.0 0.00 0.00 0.00 86 1017.5
20260902053029 73 103 0.0 0.0 0.00 0.00 0.00 86 1017.4
20260902052512 73 103 0.0 0.0 0.00 0.00 0.00 86 1017.4
20260902052011 73 103 0.0 0.0 0.00 0.00 0.00 86 1017.4
20260902051505 73 103 0.0 0.0 0.00 0.00 0.00 86 1017.4
20260902051003 73 103 0.0 0.0 0.00 0.00 0.00 85 1017.4
20260902050504 73 103 0.0 0.0 0.00 0.00 0.00 85 1017.4
20260902050012 74 103 0.0 0.0 0.00 0.00 0.00 85 1017.4
20260902045503 74 103 0.0 0.0 0.00 0.00 0.00 86 1017.4
20260902045007 74 103 0.0 0.0 0.00 0.00 0.00 85 1017.4
20260902044526 74 103 0.0 0.0 0.00 0.00 0.00 85 1017.4
20260902044010 74 103 0.0 0.0 0.00 0.00 0.00 85 1017.3
20260902043509 74 103 0.0 0.0 0.00 0.00 0.00 84 1017.3
20260902043024 74 103 0.0 0.0 0.00 0.00 0.00 84 1017.2
20260902042512 74 103 0.0 0.0 0.00 0.00 0.00 84 1017.4
20260902042016 74 103 0.0 2.0 0.00 0.00 0.00 84 1017.4
20260902041533 74 103 0.0 2.0 0.00 0.00 0.00 84 1017.5
20260902041018 75 103 0.0 2.0 0.00 0.00 0.00 84 1017.5
20260902040503 75 103 0.0 2.0 0.00 0.00 0.00 84 1017.5
20260902040008 75 103 0.0 2.0 0.00 0.00 0.00 83 1017.5
20260902035504 75 103 0.0 2.0 0.00 0.00 0.00 83 1017.5
20260902035004 75 103 0.0 2.0 0.00 0.00 0.00 83 1017.5
20260902034515 75 103 0.0 2.0 0.00 0.00 0.00 83 1017.5
20260902034008 75 103 0.0 2.0 0.00 0.00 0.00 82 1017.6
20260902033510 75 103 0.0 2.0 0.00 0.00 0.00 82 1017.6
20260902033023 76 103 0.0 2.0 0.00 0.00 0.00 82 1017.5
20260902032516 76 103 0.0 0.0 0.00 0.00 0.00 81 1017.5
20260902032016 76 103 0.0 2.0 0.00 0.00 0.00 81 1017.4
20260902031545 76 103 0.0 2.0 0.00 0.00 0.00 81 1017.4
20260902031015 76 103 0.0 2.0 0.00 0.00 0.00 81 1017.4
20260902030517 76 103 0.0 2.0 0.00 0.00 0.00 80 1017.4
20260902030032 77 103 0.0 2.0 0.00 0.00 0.00 80 1017.4
20260902025516 77 103 0.0 2.0 0.00 0.00 0.00 80 1017.4
20260902025004 77 103 0.0 0.0 0.00 0.00 0.00 79 1017.4
20260902024511 78 103 0.0 0.0 0.00 0.00 0.00 79 1017.4
20260902024007 78 103 0.0 2.0 0.00 0.00 0.00 79 1017.4
20260902023509 78 103 0.0 2.0 0.00 0.00 0.00 78 1017.4
20260902023027 78 103 0.0 2.0 0.00 0.00 0.00 78 1017.4
20260902022512 78 103 0.0 2.0 0.00 0.00 0.00 78 1017.4
20260902022009 79 103 0.0 2.0 0.00 0.00 0.00 77 1017.3
20260902021526 79 103 0.0 2.0 0.00 0.00 0.00 77 1017.3
20260902021011 78 103 0.0 2.0 0.00 0.00 0.00 77 1017.3
20260902020512 78 107 0.0 2.0 0.00 0.00 0.00 77 1017.2
20260902020029 78 98 0.0 2.0 0.00 0.00 0.00 78 1017.2
20260902015516 78 109 0.0 2.0 0.00 0.00 0.00 78 1017.2
20260902015015 78 109 0.0 2.0 0.00 0.00 0.00 78 1017.1
20260902014538 78 5 0.0 2.0 0.00 0.00 0.00 79 1017.2
20260902014005 78 5 0.0 2.0 0.00 0.00 0.00 79 1017.2
20260902013505 78 5 0.0 2.0 0.00 0.00 0.00 79 1017.3
20260902013017 78 5 0.0 2.0 0.00 0.00 0.00 79 1017.2
20260902012507 78 5 0.0 2.0 0.00 0.00 0.00 79 1017.1
20260902012010 78 5 0.0 2.0 0.00 0.00 0.00 78 1017.1
20260902011529 78 5 0.0 2.0 0.00 0.00 0.00 78 1017.1
20260902011010 79 5 0.0 2.0 0.00 0.00 0.00 78 1017.0
20260902010513 79 5 0.0 1.0 0.00 0.00 0.00 78 1017.0
20260902010034 79 5 0.0 1.0 0.00 0.00 0.00 78 1017.0
20260902005517 79 5 0.0 1.0 0.00 0.00 0.00 77 1016.8
20260902005018 79 5 0.0 2.0 0.00 0.00 0.00 76 1016.9
20260902004532 80 5 0.0 2.0 0.00 0.00 0.00 77 1016.8
20260902004017 80 5 0.0 2.0 0.00 0.00 0.00 77 1016.8
20260902003515 81 5 0.0 2.0 0.00 0.00 0.00 76 1016.8
20260902003016 81 5 0.0 2.0 0.00 0.00 0.00 76 1016.8
20260902002511 81 343 0.0 2.0 0.00 0.00 0.00 75 1016.8
20260902002010 82 343 0.0 2.0 0.00 0.00 0.00 74 1016.8